TimeAKST,TemperatureF,Dew PointF,Humidity,Sea Level PressureIn,VisibilityMPH,Wind Direction,Wind SpeedMPH,Gust SpeedMPH,PrecipitationIn,Events,Conditions,WindDirDegrees,DateUTC
12:16 AM,33.8,30.2,87,29.34,10.0,NE,3.5,-,N/A,,Mostly Cloudy,40,2013-01-25 09:16:00
12:36 AM,33.8,28.4,81,29.34,10.0,Calm,Calm,-,N/A,,Overcast,0,2013-01-25 09:36:00
12:56 AM,33.8,28.4,81,29.33,10.0,Calm,Calm,-,N/A,,Overcast,0,2013-01-25 09:56:00
1:16 AM,33.8,28.4,81,29.33,10.0,NNW,4.6,-,N/A,,Overcast,340,2013-01-25 10:16:00
1:36 AM,33.8,28.4,81,29.32,10.0,Calm,Calm,-,N/A,,Overcast,0,2013-01-25 10:36:00
1:56 AM,33.8,28.4,81,29.32,10.0,Calm,Calm,-,N/A,,Overcast,0,2013-01-25 10:56:00
2:16 AM,33.8,28.4,81,29.32,10.0,Calm,Calm,-,N/A,,Overcast,0,2013-01-25 11:16:00
2:56 AM,33.8,28.4,81,29.32,10.0,Calm,Calm,-,N/A,,Overcast,0,2013-01-25 11:56:00
3:36 AM,33.8,28.4,81,29.33,10.0,Calm,Calm,-,N/A,,Overcast,0,2013-01-25 12:36:00
3:56 AM,33.8,28.4,81,29.33,10.0,Calm,Calm,-,N/A,,Overcast,0,2013-01-25 12:56:00
4:16 AM,33.8,28.4,81,29.33,10.0,Calm,Calm,-,N/A,,Overcast,0,2013-01-25 13:16:00
4:36 AM,33.8,28.4,81,29.33,10.0,Calm,Calm,-,N/A,,Overcast,0,2013-01-25 13:36:00
4:56 AM,33.8,28.4,81,29.33,10.0,North,3.5,-,N/A,,Overcast,350,2013-01-25 13:56:00
5:16 AM,33.8,28.4,81,29.33,10.0,Calm,Calm,-,N/A,,Mostly Cloudy,0,2013-01-25 14:16:00
5:36 AM,33.8,28.4,81,29.34,10.0,North,3.5,-,N/A,,Mostly Cloudy,350,2013-01-25 14:36:00
5:56 AM,33.8,30.2,87,29.34,10.0,Calm,Calm,-,N/A,,Overcast,0,2013-01-25 14:56:00
6:16 AM,33.8,30.2,87,29.35,10.0,Calm,Calm,-,N/A,,Overcast,0,2013-01-25 15:16:00
6:36 AM,33.8,30.2,87,29.35,10.0,Calm,Calm,-,N/A,,Overcast,0,2013-01-25 15:36:00
6:56 AM,33.8,30.2,87,29.36,10.0,North,3.5,-,N/A,,Overcast,360,2013-01-25 15:56:00
7:16 AM,33.8,30.2,87,29.36,10.0,NW,4.6,-,N/A,,Overcast,320,2013-01-25 16:16:00
7:36 AM,33.8,30.2,87,29.36,10.0,NNW,4.6,-,N/A,,Overcast,330,2013-01-25 16:36:00
7:56 AM,33.8,30.2,87,29.37,10.0,Calm,Calm,-,N/A,,Overcast,0,2013-01-25 16:56:00
8:16 AM,35.6,32.0,87,29.38,10.0,NW,3.5,-,N/A,,Overcast,310,2013-01-25 17:16:00
8:36 AM,35.6,30.2,81,29.38,10.0,NNW,5.8,-,N/A,,Overcast,330,2013-01-25 17:36:00
8:56 AM,35.6,30.2,81,29.39,10.0,Calm,Calm,-,N/A,,Overcast,0,2013-01-25 17:56:00
9:16 AM,35.6,30.2,81,29.39,10.0,Calm,Calm,-,N/A,,Overcast,0,2013-01-25 18:16:00
9:36 AM,35.6,30.2,81,29.40,10.0,NNW,3.5,-,N/A,,Overcast,340,2013-01-25 18:36:00
10:16 AM,35.6,32.0,87,29.40,10.0,Calm,Calm,-,N/A,,Mostly Cloudy,0,2013-01-25 19:16:00
10:36 AM,35.6,32.0,87,29.40,10.0,NNW,5.8,-,N/A,,Overcast,340,2013-01-25 19:36:00
10:56 AM,37.4,33.8,87,29.41,10.0,NNW,6.9,-,N/A,,Overcast,340,2013-01-25 19:56:00
11:16 AM,37.4,33.8,87,29.41,10.0,NNW,6.9,-,N/A,,Overcast,330,2013-01-25 20:16:00
11:36 AM,37.4,33.8,87,29.41,10.0,NW,5.8,-,N/A,,Mostly Cloudy,310,2013-01-25 20:36:00
11:56 AM,37.4,33.8,87,29.42,10.0,Calm,Calm,-,N/A,,Overcast,0,2013-01-25 20:56:00
12:16 PM,37.4,33.8,87,29.42,10.0,Calm,Calm,-,N/A,,Overcast,0,2013-01-25 21:16:00
12:36 PM,37.4,33.8,87,29.42,10.0,Calm,Calm,-,N/A,,Overcast,0,2013-01-25 21:36:00
12:56 PM,37.4,35.6,93,29.42,10.0,Calm,Calm,-,N/A,,Overcast,0,2013-01-25 21:56:00
1:16 PM,37.4,35.6,93,29.42,10.0,Calm,Calm,-,N/A,,Overcast,0,2013-01-25 22:16:00
1:36 PM,37.4,35.6,93,29.42,10.0,NNW,4.6,-,N/A,,Overcast,340,2013-01-25 22:36:00
1:56 PM,37.4,35.6,93,29.43,10.0,NNW,3.5,-,N/A,,Overcast,340,2013-01-25 22:56:00
2:16 PM,39.2,35.6,87,29.43,10.0,Calm,Calm,-,N/A,,Overcast,0,2013-01-25 23:16:00
2:36 PM,37.4,35.6,93,29.43,10.0,NW,3.5,-,N/A,,Overcast,320,2013-01-25 23:36:00
2:56 PM,37.4,33.8,87,29.43,10.0,NNW,4.6,-,N/A,,Overcast,330,2013-01-25 23:56:00
3:16 PM,39.2,35.6,87,29.44,10.0,NW,3.5,-,N/A,,Overcast,320,2013-01-26 00:16:00
3:36 PM,39.2,35.6,87,29.44,10.0,Calm,Calm,-,N/A,,Overcast,0,2013-01-26 00:36:00
3:56 PM,37.4,35.6,93,29.44,10.0,Calm,Calm,-,N/A,,Overcast,0,2013-01-26 00:56:00
4:16 PM,37.4,35.6,93,29.44,10.0,Calm,Calm,-,N/A,,Overcast,0,2013-01-26 01:16:00
4:36 PM,37.4,33.8,87,29.45,6.0,Calm,Calm,-,N/A,,Overcast,0,2013-01-26 01:36:00
4:56 PM,37.4,33.8,87,29.45,1.2,Calm,Calm,-,N/A,,Overcast,0,2013-01-26 01:56:00
5:16 PM,37.4,33.8,87,29.46,1.2,Calm,Calm,-,N/A,,Overcast,0,2013-01-26 02:16:00
5:36 PM,37.4,33.8,87,29.46,3.0,Calm,Calm,-,N/A,,Overcast,0,2013-01-26 02:36:00
5:56 PM,35.6,33.8,93,29.46,3.0,Calm,Calm,-,N/A,,Overcast,0,2013-01-26 02:56:00
6:16 PM,35.6,33.8,93,29.46,4.0,Calm,Calm,-,N/A,,Overcast,0,2013-01-26 03:16:00
6:36 PM,35.6,33.8,93,29.47,6.0,Calm,Calm,-,N/A,,Overcast,0,2013-01-26 03:36:00
6:56 PM,35.6,33.8,93,29.47,3.0,Calm,Calm,-,N/A,,Overcast,0,2013-01-26 03:56:00
7:16 PM,35.6,33.8,93,29.47,5.0,Calm,Calm,-,N/A,,Overcast,0,2013-01-26 04:16:00
7:36 PM,35.6,33.8,93,29.47,8.0,ESE,5.8,-,N/A,,Overcast,120,2013-01-26 04:36:00
7:56 PM,37.4,33.8,87,29.48,10.0,SE,5.8,-,N/A,,Overcast,130,2013-01-26 04:56:00
8:16 PM,37.4,35.6,93,29.48,10.0,SE,4.6,-,N/A,,Overcast,140,2013-01-26 05:16:00
8:36 PM,39.2,35.6,87,29.49,10.0,SSE,4.6,-,N/A,,Overcast,150,2013-01-26 05:36:00
8:56 PM,39.2,35.6,87,29.49,10.0,SSE,3.5,-,N/A,,Overcast,150,2013-01-26 05:56:00
9:16 PM,37.4,33.8,87,29.50,9.0,SW,3.5,-,N/A,,Overcast,220,2013-01-26 06:16:00
9:36 PM,39.2,35.6,87,29.50,4.0,Calm,Calm,-,N/A,,Overcast,0,2013-01-26 06:36:00
9:56 PM,39.2,35.6,87,29.51,7.0,South,3.5,-,N/A,,Overcast,190,2013-01-26 06:56:00
10:16 PM,39.2,35.6,87,29.50,5.0,South,5.8,-,N/A,,Overcast,170,2013-01-26 07:16:00
10:36 PM,39.2,35.6,87,29.51,9.0,South,4.6,-,N/A,,Overcast,170,2013-01-26 07:36:00
10:56 PM,39.2,35.6,87,29.51,10.0,South,4.6,-,N/A,,Overcast,180,2013-01-26 07:56:00
11:16 PM,39.2,35.6,87,29.52,10.0,Calm,Calm,-,N/A,,Overcast,0,2013-01-26 08:16:00
11:36 PM,37.4,35.6,93,29.52,10.0,Calm,Calm,-,N/A,,Overcast,0,2013-01-26 08:36:00
11:56 PM,39.2,35.6,87,29.52,10.0,Calm,Calm,-,N/A,,Overcast,0,2013-01-26 08:56:00